EHI
0 0 0 0 0 0 0 0 0 0 0 0 0 0 0 0 0 0 0 0 0 0 0 0 0 0 0 0 0 0 0 0 0 0 0 0 0 0 0 0 0 0 0
0 0 0 0 0 0 0 0 0 0 0 0 0 0 0 0 0 0 0 0 0 0 0 0 0 0 0 0 0 0 0 0 0 0 0 0 0 0 0 0 0 0 0
0 0 0 0 0 0 0 0 0 0 0 0 0 0 0 0 0 0 0 0 0 0 0 0 0 0 0 0 0 0 0 0 0 0 0 0 0 0 0 0 0 0 0
0 0 0 0 0 0 0 0 0 0 0 0 0 0 0 0 0 0 0 0 0 0 0 0 0 0 0 0 0 0 0 0 0 0 0 0 0 0 0 0 0 0 0
0 0 0 0 0 0 0 0 0 0 0 0 0 0 0 0 0 0 0 0 0 0 0 0 0 0 0 0 0 0 0 0 0 0 0 0 0 0 0 0 0 0 0
0 0 0 0 0 0 0 0 0 0 0 0 0 0 0 0 0 0 0 0 0 0 0 0 0 0 0 0 0 0 0 0 0 0 0 0 0 0 0 0 0 0 0
0 0 0 0 0 0 0 0 0 0 0 0 0 0 0 0 0 0 0 0 0 0 0 0 0 0 0 0 0 0 0 0 0 0 0 0 0 0 0 0 0 0 0
0 0 0 0 0 0 0 0 0 0 0 0 0 0 0 0 0 0 0 0 0 0 0 0 0 0 0 0 0 0 0 0 0 0 0 0 0 0 0 0 0 0 0
0 0 0 0 0 0 0 0 0 0 0 0 0 0 0 0 0 0 0 0 0 0 0 0 0 0 0 0 0 0 0 0 0 0 0 0 0 0 0 0 0 0 0
0 0 0 0 0 0 0 0 0 0 0 0 0 0 0 0 0 0 0 0 0 0 0 0 0 0 0 0 0 0 0 0 0 0 0 0 0 0 0 0 0 0 0
0 0 0 0 0 0 0 0 0 0 0 0 0 0 0 0 0 0 0 0 0 0 0 0 0 0 0 0 0 0 0 0 0 0 0 0 0 0 0 0 0 0 0
0 0 0 0 0 0 0 0 0 0 0 0 0 0 0 0 0 0 0 0 0 0 0 0 0 0 0 0 0 0 0 0 0 0 0 0 0 0 0 0 0 0 0
0 0 0 0 0 0 0 0 0 0 0 0 0 0 0 0 0 0 0 0 0 0 0 0 0 0 0 0 0 0 0 0 0 0 0 0 0 0 0 0 0 0 0
0 0 0 0 0 0 0 0 0 0 0 0 0 0 0 0 0 0 0 0 0 0 0 0 0 0 0 0 0 0 0 0 0 0 0 0 0 0 0 0 0 0 0
0 0 0 0 0 0 0 0 0 0 0 0 0 0 0 0 0 0 0 0 0 0 0 0 0 0 0 0 0 0 0 0 0 0 0 0 0 0 0 0 0 0 0
0 0 0 0 0 0 0 0 0 0 0 0 0 0 0 0 0 0 0 0 0 0 0 0 0 0 0 0 0 0 0 0 0 0 0 0 0 0 0 0 0 0 0
0 0 0 0 0 0 0 0 0 0 0 0 0 0 0 0 0 0 0 0 0 0 0 0 0 0 0 0 0 0 0 0 0 0 0 0 0 0 0 0 0 0 0
0 0 0 0 0 0 0 0 0 0 0 0 0 0 0 0 0 0 0 0 0 0 0 0 0 0 0 0 0 0 0 0 0 0 0 0 0 0 0 0 0 0 0
0 0 0 0 0 0 0 0 0 0 0 0 0 0 0 0 0 0 0 0 0 0 0 0 0 0 0 0 0 0 0 0 0 0 0 0 0 0 0 0 0 0 0
0 0 0 0 0 0 0 0 0 0 0 0 0 0 0 0 0 0 0 0 0 0 0 0 0 0 0 0 0 0 0 0 0 0 0 0 0 0 0 0 0 0 0
0 0 0 0 0 0 0 0 0 0 0 0 0 0 0 0 0 0 0 0 0 0 0 0 0 0 0 0 0 0 0 0 0 0 0 0 0 0 0 0 0 0 0
0 0 0 0 0 0 0 0 0 0 0 0 0 0 0 0 0 0 0 0 0 0 0 0 0 0 0 0 0 0 0 0 0 0 0 0 0 0 0 0 0 0 0
0 0 0 0 0 0 0 0 0 0 0 0 0 0 0 0 0 0 0 0 0 0 0 0 0 0 0 0 0 0 0 0 0 0 0 0 0 0 0 0 0 0 0
0 0 0 0 0 0 0 0 0 0 0 0 0 0 0 0 0 0 0 0 0 0 0 0 0 0 0 0 0 0 0 0 0 0 0 0 0 0 0 0 0 0 0
0 0 0 0 0 0 0 0 0 0 0 0 0 0 0 0 0 0 0 0 0 0 0 0 0 0 0 0 0 0 0 0 0 0 0 0 0 0 0 0 0 0 0
0 0 0 0 0 0 0 0 0 0 0 0 0 0 0 0 0 0 0 0 0 0 0 0 0 0 0 0 0 0 0 0 0 0 0 0 0 0 0 0 0 0 0
Wind_Speed
10 14 20 18 17 15 14 13 12 11 10 9 9 9 9 9 10 10 10 10 10 10 11 11 11 12 12 13 14 14 14 15 15 15 15 14 14 14 14 13 12 12 15
12 16 20 19 18 16 15 13 12 11 10 9 9 9 9 9 9 9 9 9 10 10 10 10 10 11 11 12 12 13 13 14 13 13 13 12 13 14 14 14 13 11 14
12 17 20 20 18 17 15 14 13 12 11 10 9 8 8 8 8 8 8 9 9 9 9 10 10 10 10 10 11 12 12 12 12 11 10 9 10 13 13 13 13 13 13
12 16 17 20 19 17 16 14 13 12 11 10 9 9 8 8 8 8 8 8 8 8 8 9 9 9 9 9 10 10 11 11 10 8 7 8 8 11 12 12 13 13 13
13 16 16 20 19 18 16 15 14 13 12 11 10 9 8 8 7 7 7 7 7 7 7 7 7 8 8 8 8 9 9 9 8 7 7 7 7 9 11 11 11 11 12
13 16 17 20 20 18 17 16 14 13 12 11 10 9 8 8 7 7 7 6 6 6 6 6 6 6 6 7 7 7 8 7 4 6 6 6 6 8 8 9 9 9 10
13 15 16 20 20 18 17 16 15 14 13 11 10 9 8 8 7 7 6 6 5 5 5 5 5 5 5 5 5 6 6 6 4 4 4 5 6 6 6 7 7 7 7
12 14 15 19 19 18 17 16 15 14 13 12 11 10 9 8 7 7 6 5 5 4 4 3 3 3 3 3 4 4 5 4 2 2 3 4 7 5 4 4 5 5 5
11 13 13 16 16 17 16 16 15 14 13 12 11 10 9 8 8 7 6 5 5 4 3 2 2 1 1 1 2 2 2 3 4 1 2 2 7 4 3 2 2 2 3
10 12 13 14 14 14 14 15 14 14 13 12 11 10 8 8 8 7 7 6 5 4 4 3 2 2 1 1 1 1 1 3 4 3 3 2 7 6 3 3 3 2 2
10 12 13 13 13 12 11 12 13 12 12 11 10 9 8 7 7 6 6 6 6 6 5 5 5 4 4 3 2 2 4 4 4 4 4 4 8 8 6 5 5 5 5
12 13 12 13 12 11 8 9 9 9 9 9 8 9 7 6 5 4 5 6 6 6 7 7 6 6 6 4 4 4 5 5 5 5 4 7 10 11 10 9 8 8 8
10 12 12 13 12 11 8 7 6 5 6 8 9 8 6 5 4 5 4 6 7 6 7 5 7 6 6 5 5 5 6 6 5 5 6 9 12 13 14 13 12 12 11
8 11 12 13 12 11 9 8 7 6 5 5 7 8 6 5 5 5 5 6 5 5 6 6 6 7 8 8 9 9 9 7 6 5 6 11 14 15 16 16 16 15 15
8 10 12 13 13 11 10 7 7 7 7 7 6 8 8 7 7 7 6 6 7 6 7 7 8 9 9 10 9 10 11 11 10 9 7 13 16 17 18 19 19 18 18
6 8 9 12 12 12 10 9 8 7 7 7 7 9 10 8 8 7 8 7 8 8 8 8 10 9 9 9 10 12 12 12 12 12 10 11 17 19 21 21 21 21 21
3 5 8 9 11 12 11 10 7 7 7 7 7 9 10 10 9 9 8 8 8 9 10 9 11 9 9 10 12 13 12 13 13 13 13 10 11 17 22 23 23 23 23
3 4 5 5 8 9 9 8 6 6 7 7 7 7 10 11 11 9 9 9 10 8 8 9 9 9 10 10 11 11 11 11 14 15 13 13 11 11 16 23 25 26 26
6 5 5 5 6 6 7 6 6 6 6 6 6 7 9 11 11 10 10 10 10 8 9 9 10 10 11 12 11 11 11 12 13 14 16 16 15 14 13 16 24 27 28
8 7 6 5 3 4 4 4 4 5 6 6 7 8 10 10 11 11 10 12 11 9 9 10 12 12 11 11 11 12 12 13 13 14 16 15 15 17 17 16 15 18 28
10 9 7 5 4 3 2 2 3 4 5 5 6 9 10 11 11 11 10 11 11 10 12 14 12 13 12 10 10 11 13 16 17 15 14 14 16 17 17 17 15 13 12
11 9 8 6 4 3 1 1 2 3 4 5 5 7 9 10 11 10 12 11 11 10 13 14 13 11 10 9 8 9 9 10 13 13 13 13 15 14 15 17 17 16 14
11 9 7 6 4 2 1 1 1 2 3 4 5 5 7 9 11 11 13 12 12 12 11 13 13 14 12 10 10 10 9 9 7 7 11 11 13 12 12 13 16 17 17
9 7 7 6 5 3 1 1 3 3 5 5 5 5 7 8 10 10 12 13 13 11 13 13 13 12 13 12 11 12 13 11 10 9 7 9 12 13 14 12 14 15 16
8 7 6 6 6 4 2 1 3 5 5 6 6 8 8 7 8 10 11 11 12 11 13 14 14 14 12 13 12 11 12 13 15 12 14 13 12 11 13 14 13 13 15
7 6 6 6 6 5 3 3 4 6 7 8 9 8 7 7 7 9 9 10 11 11 12 13 14 15 14 15 13 12 12 11 11 13 15 15 14 13 13 12 13 13 13
Wind_Direction
179 172 171 174 167 164 162 158 153 148 144 138 128 120 114 109 104 98 94 90 86 80 75 73 71 69 67 66 64 63 62 60 58 55 55 61 67 70 67 61 59 61 59
166 170 171 173 169 167 166 163 158 153 151 144 135 127 119 115 109 103 97 91 87 82 78 74 72 71 69 69 68 67 65 63 60 56 54 61 66 69 67 65 61 62 61
162 168 172 174 171 170 169 167 162 159 156 150 143 137 130 123 116 109 101 94 87 82 79 75 73 73 71 70 70 69 66 63 58 54 58 59 66 68 67 65 64 64 62
166 170 173 172 173 173 172 171 167 165 162 158 153 148 141 134 126 117 107 98 91 85 81 77 74 74 74 73 71 69 65 60 53 49 58 52 59 66 66 64 63 62 60
170 174 171 172 175 176 175 175 172 170 168 165 161 156 151 143 133 123 114 105 98 91 85 80 77 74 75 74 71 69 63 54 49 58 58 50 52 64 64 62 61 61 60
172 176 171 175 177 178 178 177 175 174 173 170 168 164 160 153 142 132 124 116 108 102 93 85 80 76 76 75 71 68 61 42 46 63 54 44 44 62 64 62 59 58 57
174 177 173 178 180 180 181 179 178 177 178 175 176 173 170 165 155 146 140 133 125 117 106 93 83 78 75 75 72 67 58 27 30 59 44 34 33 47 57 56 55 54 54
177 178 174 180 183 183 184 182 181 182 182 181 183 181 178 175 168 162 158 154 148 137 124 111 96 81 72 71 76 72 54 10 360 39 29 25 13 21 42 44 42 44 46
180 181 179 181 186 187 187 186 185 186 186 186 188 188 187 184 182 176 174 174 171 167 157 146 132 114 83 67 75 83 61 13 287 324 331 355 352 345 6 14 10 18 27
186 188 186 186 187 188 189 188 188 188 190 191 191 190 189 192 195 187 189 190 192 193 195 200 204 212 218 248 250 197 160 252 259 262 266 319 332 315 306 302 300 302 307
193 195 193 192 189 191 191 186 188 189 192 194 194 185 188 204 203 198 201 196 211 215 219 225 228 235 238 228 250 241 224 251 258 263 265 298 301 293 278 270 270 271 268
197 196 196 197 192 192 189 188 194 195 194 200 202 195 201 206 209 214 170 206 226 235 237 240 243 239 241 235 205 215 242 251 261 253 252 267 276 278 273 264 259 259 258
204 196 200 199 197 195 191 194 193 195 198 203 206 199 197 201 204 215 212 206 220 228 237 230 239 240 246 250 257 248 256 262 258 257 251 252 262 267 269 265 258 254 253
208 200 200 200 200 202 199 197 199 196 198 201 202 200 198 205 217 221 227 231 233 231 238 242 247 246 249 250 251 255 253 248 251 253 252 248 254 259 263 264 261 256 252
210 201 200 201 202 203 207 206 207 208 207 206 203 207 212 217 224 226 232 234 239 243 242 245 248 251 251 251 250 252 254 252 250 248 248 243 248 253 256 259 260 258 254
208 201 197 202 204 204 208 212 214 217 217 221 215 219 221 228 233 234 240 240 243 243 247 249 252 255 255 253 253 252 253 254 251 248 247 244 242 246 250 253 255 256 256
185 189 191 199 205 208 213 218 223 224 225 226 227 229 228 233 238 238 244 245 246 246 247 249 254 256 258 257 257 256 254 253 251 249 248 246 242 240 243 248 251 253 255
104 150 171 184 202 209 215 220 224 231 233 234 234 236 235 238 242 245 247 250 250 250 247 248 251 251 252 253 256 256 252 249 251 251 248 244 242 242 240 241 244 248 250
77 103 135 167 191 202 213 222 232 238 241 244 242 242 242 243 244 245 250 254 255 250 248 250 252 253 257 258 259 260 257 254 252 250 248 246 242 241 242 242 241 244 246
71 82 99 126 158 177 195 216 229 241 246 248 247 246 248 246 245 246 251 255 257 251 249 249 251 253 256 264 268 266 262 257 252 248 249 247 242 239 239 242 240 241 241
69 74 82 96 115 144 165 200 226 239 245 246 249 255 254 254 251 248 252 257 254 250 250 253 255 256 255 256 265 267 259 250 246 245 243 244 243 239 238 237 237 238 239
63 66 73 81 97 128 166 210 253 273 275 274 266 262 259 257 255 253 253 255 255 253 254 255 254 255 256 245 246 270 277 267 241 233 237 239 242 240 238 236 236 235 236
58 56 61 68 78 92 150 226 253 262 268 263 268 268 266 263 259 255 255 257 257 254 254 254 251 247 250 247 232 243 263 269 292 241 232 238 239 239 238 236 235 235 234
57 58 61 66 69 74 112 263 277 286 291 299 299 288 283 272 265 261 260 259 260 257 256 255 251 248 248 251 246 234 243 265 276 282 245 235 241 244 245 241 239 236 233
61 58 59 62 61 58 42 331 297 295 299 301 300 293 292 284 272 266 264 263 261 258 257 257 256 251 244 245 247 245 242 247 249 257 269 266 253 243 244 246 244 241 237
66 59 54 53 49 38 19 345 317 310 308 306 305 303 300 293 285 276 270 265 263 261 260 258 257 254 250 249 247 246 246 243 240 244 257 264 265 261 251 243 244 245 242